Home   Weather   Mutsamudu   Past weeks

Flag for Comoros Past Weather in Mutsamudu, Comoros — Yesterday and Last 2 Weeks

Now
82 °F

Scattered clouds.


Feels Like: 87 °F
Forecast: 80 / 83 °F
Wind: 10 mph from Southwest

Location: Dzaoudzi / Pamanzi Mayotte

Current Time: Apr 25, 2017 at 8:05:57 am

Latest Report: Apr 25, 2017 at 7:30 am


Visibility: N/A

Pressure: 29.98 "Hg

Humidity: 70%

Dew Point: 72 °F

Location of MutsamuduLocation

Past Weather in Mutsamudu — Graph

°F

Mutsamudu Temperature Yesterday

Maximum temperature yesterday: 88 °F (at 11:30 am)
Minimum temperature yesterday: 75 °F (at 2:30 am)
Average temperature yesterday: 82 °F

High & Low Weather Summary for the Past Weeks

 TemperatureHumidityPressure
High90 °F (Apr 12, 10:30 am)94% (Apr 10, 11:30 am)29.98 "Hg (Apr 10, 11:30 am)
Low73 °F (Apr 10, 12:00 pm)55% (Apr 24, 2:30 pm)29.83 "Hg (Apr 11, 2:30 pm)
Average82 °F77%29.90 "Hg
* Reported Apr 10 7:00 am — Apr 25 7:00 am, Mutsamudu, Weather by CustomWeather, © 2017

Note: Actual official high and low records may vary slightly from our data, if they occured in-between our weather recording intervals... More about our weather records

Advertising

Mutsamudu Weather History for the Previous 24 Hours

Scroll right to see more
 ConditionsComfort  
Time TempWeatherWind HumidityBarometerVisibility
7:00 am
Tue, Apr 25
82 °FScattered clouds.10 mph70%29.95 "HgN/A
6:30 am81 °FScattered clouds.10 mph74%29.95 "HgN/A
6:00 am81 °FPassing clouds.10 mph70%29.95 "HgN/A
5:30 am81 °FPassing clouds.12 mph70%29.92 "HgN/A
5:00 am81 °FPassing clouds.10 mph70%29.92 "HgN/A
4:00 am81 °FPassing clouds.10 mph74%29.95 "HgN/A
3:30 am81 °FPartly cloudy.9 mph74%29.95 "HgN/A
3:00 am81 °FPassing clouds.10 mph74%29.95 "HgN/A
2:30 am81 °FPassing clouds.9 mph74%29.95 "HgN/A
2:00 am81 °FPassing clouds.7 mph74%29.95 "HgN/A
1:30 am81 °FPassing clouds.8 mph74%29.95 "HgN/A
1:00 am81 °FPassing clouds.7 mph74%29.98 "HgN/A
12:30 am81 °FPassing clouds.7 mph74%29.98 "HgN/A
12:00 am79 °FWarm.7 mph79%29.98 "HgN/A
11:30 pm
Mon, Apr 24
79 °FPassing clouds.7 mph79%29.98 "HgN/A
11:00 pm79 °FPassing clouds.6 mph79%29.98 "HgN/A
10:30 pm79 °FWarm.5 mph79%29.98 "HgN/A
10:00 pm81 °FWarm.7 mph74%29.98 "HgN/A
9:30 pm81 °FPassing clouds.8 mph74%29.98 "HgN/A
9:00 pm81 °FPassing clouds.9 mph74%29.98 "HgN/A
8:30 pm81 °FPassing clouds.8 mph74%29.98 "HgN/A
8:00 pm81 °FWarm.8 mph74%29.95 "HgN/A
7:30 pm81 °FWarm.8 mph70%29.95 "HgN/A
7:00 pm81 °FWarm.9 mph70%29.95 "HgN/A
6:30 pm82 °FWarm.10 mph66%29.92 "HgN/A
6:00 pm82 °FPassing clouds.13 mph66%29.92 "HgN/A
5:30 pm84 °FPassing clouds.13 mph66%29.92 "HgN/A
5:00 pm84 °FPassing clouds.12 mph66%29.92 "HgN/A
4:30 pm86 °FPassing clouds.12 mph59%29.89 "HgN/A
4:00 pm86 °FScattered clouds.12 mph62%29.89 "HgN/A
3:30 pm86 °FScattered clouds.10 mph59%29.89 "HgN/A
3:04 pm86 °FScattered clouds.9 mph59%29.89 "HgN/A
2:30 pm88 °FScattered clouds.10 mph55%29.89 "HgN/A
2:00 pm86 °FScattered clouds.9 mph59%29.89 "HgN/A
1:30 pm88 °FPassing clouds.10 mph59%29.89 "HgN/A
1:04 pm86 °FPassing clouds.10 mph59%29.92 "HgN/A
12:30 pm86 °FPassing clouds.9 mph62%29.92 "HgN/A
12:00 pm88 °FPassing clouds.10 mph59%29.92 "HgN/A
11:30 am88 °FPassing clouds.8 mph59%29.95 "HgN/A
11:00 am86 °FPassing clouds.8 mph59%29.95 "HgN/A
10:00 am86 °FPassing clouds.8 mph59%29.98 "HgN/A
9:00 am86 °FPassing clouds.8 mph59%29.98 "HgN/A
8:37 am84 °FPassing clouds.8 mph62%29.95 "HgN/A
8:00 am84 °FPassing clouds.6 mph66%29.95 "HgN/A
Weather by CustomWeather, © 2017

See weather overviewHow to use our weather pages